Weather History for KRSL - January, 2013

Change the Weather History Date:

Monday, January 7, 2013

  Actual Average Record
Temperature  
Mean Temperature 36 °F -  
Max Temperature 41 °F 33 °F 71 °F (1965)
Min Temperature 30 °F 12 °F -12 °F (1971)
Degree Days  
Heating Degree Days 30    
Moisture  
Dew Point 26 °F    
Average Humidity 71    
Maximum Humidity 85    
Minimum Humidity 64    
Precipitation  
Precipitation 0.00 in - - ()
Sea Level Pressure  
Sea Level Pressure 30.03 in    
Wind  
Wind Speed 19 mph (SSW)    
Max Wind Speed 26 mph    
Max Gust Speed 33 mph    
Visibility 10 miles    
Events      
Averages and records for this station are not official NWS values.
T = Trace of Precipitation, MM = Missing Value Source: NWS Daily Summary

Daily Weather History Graph

Daily Weather History Graph

Search for Another Location

Airport or City:

Trip Planner

Search our weather history database for the weather conditions in past years. The results will help you decide how hot, cold, wet, or windy it might be!

Date:

Astronomy

Jan. 07, 2013 Rise Set
Actual Time 7:53 AM CST 5:29 PM CST
Civil Twilight 7:24 AM CST 5:59 PM CST
Nautical Twilight 6:51 AM CST 6:32 PM CST
Astronomical Twilight 6:19 AM CST 7:04 PM CST
Moon 3:20 AM CST (1/7) 1:41 PM CST (1/7)
Length of Visible Light 10h 34m
Length of Day
9h 35m
Waning Crescent, 22% of the Moon is Illuminated
Jan 7
Waning Crescent
Jan 11
New
Jan 18
First Quarter
Jan 26
Full
Feb 3
Last Quarter

Hourly Weather History & Observations

Time (CST) Temp. Windchill Dew Point Humidity Pressure Visibility Wind Dir Wind Speed Gust Speed Precip Events Conditions
12:53 AM 32.0 °F 19.2 °F 23.0 °F 69% 30.12 in 10.0 mi South 23.0 mph - N/A   Clear
1:53 AM 34.0 °F 22.1 °F 24.1 °F 67% 30.10 in 10.0 mi South 21.9 mph - N/A   Clear
2:53 AM 34.0 °F 21.8 °F 24.1 °F 67% 30.09 in 10.0 mi South 23.0 mph - N/A   Clear
3:53 AM 34.0 °F 21.0 °F 24.1 °F 67% 30.07 in 10.0 mi South 26.5 mph - N/A   Clear
4:53 AM 33.1 °F 20.3 °F 23.0 °F 66% 30.07 in 10.0 mi SSW 24.2 mph - N/A   Clear
5:53 AM 33.1 °F 20.6 °F 23.0 °F 66% 30.06 in 10.0 mi South 23.0 mph - N/A   Clear
6:53 AM 33.1 °F 22.2 °F 23.0 °F 66% 30.08 in 10.0 mi SSW 17.3 mph - N/A   Clear
7:53 AM 35.1 °F 22.7 °F 24.1 °F 64% 30.06 in 10.0 mi SSW 25.3 mph 33.4 mph N/A   Clear
8:53 AM 35.1 °F 23.3 °F 25.0 °F 67% 30.07 in 10.0 mi SSW 23.0 mph - N/A   Clear
9:53 AM 36.0 °F 23.7 °F 25.0 °F 64% 30.06 in 10.0 mi South 26.5 mph 33.4 mph N/A   Clear
10:53 AM 37.0 °F 28.9 °F 26.1 °F 65% 30.09 in 10.0 mi SW 12.7 mph - N/A   Clear
11:53 AM 39.0 °F 29.3 °F 28.0 °F 65% 30.06 in 10.0 mi SSW 19.6 mph - N/A   Clear
12:53 PM 39.2 °F 29.3 °F 28.4 °F 65% 29.97 in 10.0 mi SSW 20.7 mph - N/A   Clear
1:53 PM 39.9 °F 31.4 °F 28.9 °F 65% 29.99 in 10.0 mi SW 16.1 mph - N/A   Clear
2:53 PM 41.0 °F 33.5 °F 30.0 °F 65% 29.99 in 10.0 mi SSW 13.8 mph - N/A   Clear
3:53 PM 41.0 °F 33.9 °F 30.0 °F 65% 29.99 in 10.0 mi SSW 12.7 mph - N/A   Clear
4:53 PM 39.2 °F 32.0 °F 30.2 °F 70% 29.95 in 10.0 mi SSW 11.5 mph - N/A   Clear
5:53 PM 37.0 °F 28.9 °F 30.0 °F 76% 29.99 in 10.0 mi SSW 12.7 mph - N/A   Clear
6:53 PM 37.0 °F 28.5 °F 28.9 °F 73% 29.98 in 10.0 mi SSW 13.8 mph - N/A   Clear
7:53 PM 32.0 °F 24.8 °F 28.0 °F 85% 29.99 in 10.0 mi SW 8.1 mph - N/A   Clear
8:53 PM 32.0 °F 26.4 °F 28.0 °F 85% 29.99 in 10.0 mi WSW 5.8 mph - N/A   Clear
9:53 PM 30.9 °F 25.2 °F 27.0 °F 85% 29.98 in 10.0 mi SSW 5.8 mph - N/A   Clear
10:53 PM 30.0 °F 23.2 °F 26.1 °F 85% 29.97 in 10.0 mi SSW 6.9 mph - N/A   Clear
11:53 PM 30.0 °F 19.5 °F 25.0 °F 82% 29.96 in 10.0 mi SW 13.8 mph - N/A   Clear